Time,TemperatureF,DewpointF,PressureIn,WindDirection,WindDirectionDegrees,WindSpeedMPH,WindSpeedGustMPH,Humidity,HourlyPrecipIn,Conditions,Clouds,dailyrainin,SoftwareType,DateUTC
2013-03-25 00:00:00,33.5,29.0,29.74,South,180,2.5,2.5,83,0.00,,BKN060,0.00,VWS V14.01,2013-03-25 04:00:00,
2013-03-25 00:02:00,33.4,28.8,29.74,South,180,2.5,2.5,83,0.00,,BKN060,0.00,VWS V14.01,2013-03-25 04:02:00,
2013-03-25 00:08:00,33.6,29.0,29.74,South,180,2.5,2.5,83,0.00,,BKN060,0.00,VWS V14.01,2013-03-25 04:08:00,
2013-03-25 00:12:00,33.6,29.0,29.73,South,180,2.5,2.5,83,0.00,,BKN060,0.00,VWS V14.01,2013-03-25 04:12:00,
2013-03-25 00:18:00,33.7,29.0,29.74,South,180,2.5,2.5,83,0.00,,BKN060,0.00,VWS V14.01,2013-03-25 04:18:00,
2013-03-25 00:24:00,33.6,28.8,29.73,South,180,2.5,2.5,82,0.00,,BKN060,0.00,VWS V14.01,2013-03-25 04:24:00,
2013-03-25 00:30:00,33.5,28.6,29.73,South,180,2.5,2.5,82,0.00,,BKN060,0.00,VWS V14.01,2013-03-25 04:30:00,
2013-03-25 00:36:00,33.4,28.5,29.73,South,180,2.5,2.5,82,0.00,,BKN060,0.00,VWS V14.01,2013-03-25 04:36:00,
2013-03-25 00:42:00,33.3,28.3,29.73,South,180,2.5,2.5,82,0.00,,BKN060,0.00,VWS V14.01,2013-03-25 04:42:00,
2013-03-25 00:48:00,33.3,28.4,29.73,South,180,2.5,2.5,82,0.00,,BKN060,0.00,VWS V14.01,2013-03-25 04:48:00,
2013-03-25 00:54:00,33.0,28.1,29.73,South,180,2.5,2.5,82,0.00,,BKN060,0.00,VWS V14.01,2013-03-25 04:54:00,
2013-03-25 01:00:00,32.9,28.1,29.73,South,180,2.5,2.5,82,0.00,,BKN060,0.00,VWS V14.01,2013-03-25 05:00:00,
2013-03-25 01:08:00,32.8,28.1,29.73,South,180,2.5,2.5,83,0.00,,SCT060,0.00,VWS V14.01,2013-03-25 05:08:00,
2013-03-25 01:14:00,32.7,28.0,29.72,South,180,2.5,2.5,83,0.00,,SCT060,0.00,VWS V14.01,2013-03-25 05:14:00,
2013-03-25 01:20:00,32.6,27.9,29.72,South,180,2.5,2.5,83,0.00,,SCT060,0.00,VWS V14.01,2013-03-25 05:20:00,
2013-03-25 01:28:00,32.5,27.9,29.72,South,180,2.5,2.5,83,0.00,,SCT060,0.00,VWS V14.01,2013-03-25 05:28:00,
2013-03-25 01:34:00,32.4,27.8,29.72,South,180,2.5,2.5,83,0.00,,SCT060,0.00,VWS V14.01,2013-03-25 05:34:00,
2013-03-25 01:40:00,32.4,27.8,29.72,South,180,2.5,2.5,83,0.00,,SCT060,0.00,VWS V14.01,2013-03-25 05:40:00,
2013-03-25 01:48:00,32.4,27.9,29.72,South,180,2.5,2.5,83,0.00,,SCT060,0.00,VWS V14.01,2013-03-25 05:48:00,
2013-03-25 01:54:00,32.3,27.8,29.71,South,180,2.5,2.5,83,0.00,,SCT060,0.00,VWS V14.01,2013-03-25 05:54:00,
2013-03-25 02:00:00,32.2,27.7,29.71,South,180,2.5,2.5,83,0.00,,SCT060,0.00,VWS V14.01,2013-03-25 06:00:00,
2013-03-25 02:06:00,32.2,27.8,29.71,South,180,2.5,2.5,84,0.00,,CLR,0.00,VWS V14.01,2013-03-25 06:06:00,
2013-03-25 02:12:00,32.1,27.8,29.71,South,180,2.5,2.5,84,0.00,,CLR,0.00,VWS V14.01,2013-03-25 06:12:00,
2013-03-25 02:18:00,31.9,27.7,29.71,South,180,2.5,2.5,84,0.00,,CLR,0.00,VWS V14.01,2013-03-25 06:18:00,
2013-03-25 02:24:00,32.0,27.8,29.71,South,180,2.5,2.5,84,0.00,,CLR,0.00,VWS V14.01,2013-03-25 06:24:00,
2013-03-25 02:30:00,32.0,27.8,29.71,South,180,2.5,2.5,84,0.00,,CLR,0.00,VWS V14.01,2013-03-25 06:30:00,
2013-03-25 02:38:00,32.1,28.0,29.71,South,180,2.5,2.5,85,0.00,,CLR,0.00,VWS V14.01,2013-03-25 06:38:00,
2013-03-25 02:44:00,32.0,28.0,29.71,South,180,2.5,2.5,85,0.00,,CLR,0.00,VWS V14.01,2013-03-25 06:44:00,
2013-03-25 02:50:00,31.9,27.9,29.71,South,180,2.5,2.5,85,0.00,,CLR,0.00,VWS V14.01,2013-03-25 06:50:00,
2013-03-25 02:58:00,31.8,27.9,29.71,South,180,2.5,2.5,85,0.00,,CLR,0.00,VWS V14.01,2013-03-25 06:58:00,
2013-03-25 03:04:00,31.9,28.0,29.71,South,180,2.5,2.5,85,0.00,,SCT060,0.00,VWS V14.01,2013-03-25 07:04:00,
2013-03-25 03:10:00,31.8,28.0,29.71,South,180,2.5,2.5,86,0.00,,SCT060,0.00,VWS V14.01,2013-03-25 07:10:00,
2013-03-25 03:16:00,31.9,28.1,29.71,South,180,2.5,2.5,86,0.00,,SCT060,0.00,VWS V14.01,2013-03-25 07:16:00,
2013-03-25 03:22:00,31.8,28.0,29.71,South,180,2.5,2.5,86,0.00,,SCT060,0.00,VWS V14.01,2013-03-25 07:22:00,
2013-03-25 03:28:00,31.7,27.9,29.70,South,180,2.5,2.5,86,0.00,,SCT060,0.00,VWS V14.01,2013-03-25 07:28:00,
2013-03-25 03:34:00,31.8,28.0,29.70,South,180,2.5,2.5,86,0.00,,SCT060,0.00,VWS V14.01,2013-03-25 07:34:00,
2013-03-25 03:40:00,31.9,28.0,29.70,South,180,2.5,2.5,86,0.00,,SCT060,0.00,VWS V14.01,2013-03-25 07:40:00,
2013-03-25 03:48:00,31.8,28.0,29.69,South,180,2.5,2.5,86,0.00,,SCT060,0.00,VWS V14.01,2013-03-25 07:48:00,
2013-03-25 03:54:00,31.8,27.9,29.69,South,180,2.5,2.5,85,0.00,,SCT060,0.00,VWS V14.01,2013-03-25 07:54:00,
2013-03-25 04:00:00,31.8,27.9,29.69,South,180,2.5,2.5,85,0.00,,SCT060,0.00,VWS V14.01,2013-03-25 08:00:00,
2013-03-25 04:06:00,31.9,28.0,29.69,South,180,2.5,2.5,85,0.00,,BKN200,0.00,VWS V14.01,2013-03-25 08:06:00,
2013-03-25 04:12:00,31.9,28.0,29.69,South,180,2.5,2.5,85,0.00,,BKN200,0.00,VWS V14.01,2013-03-25 08:12:00,
2013-03-25 04:18:00,31.9,28.0,29.68,South,180,2.5,2.5,85,0.00,,BKN200,0.00,VWS V14.01,2013-03-25 08:18:00,
2013-03-25 04:24:00,31.9,28.0,29.68,South,180,2.5,2.5,85,0.00,,BKN200,0.00,VWS V14.01,2013-03-25 08:24:00,
2013-03-25 04:30:00,32.0,28.1,29.68,South,180,2.5,2.5,85,0.00,,BKN200,0.00,VWS V14.01,2013-03-25 08:30:00,
2013-03-25 04:36:00,32.0,28.2,29.68,South,180,2.5,2.5,86,0.00,,BKN200,0.00,VWS V14.01,2013-03-25 08:36:00,
2013-03-25 04:42:00,32.1,28.4,29.68,South,180,2.5,2.5,86,0.00,,BKN200,0.00,VWS V14.01,2013-03-25 08:42:00,
2013-03-25 04:48:00,32.0,28.4,29.68,South,180,2.5,2.5,86,0.00,,BKN200,0.00,VWS V14.01,2013-03-25 08:48:00,
2013-03-25 04:54:00,32.3,28.9,29.67,South,180,2.5,2.5,87,0.00,,BKN200,0.00,VWS V14.01,2013-03-25 08:54:00,
2013-03-25 05:00:00,32.3,29.4,29.67,South,180,2.5,2.5,89,0.00,,BKN200,0.00,VWS V14.01,2013-03-25 09:00:00,
2013-03-25 05:08:00,32.6,30.0,29.67,South,180,2.5,2.5,90,0.00,,BKN200,0.00,VWS V14.01,2013-03-25 09:08:00,
2013-03-25 05:14:00,33.0,30.7,29.67,NW,318,2.5,4.6,91,0.00,,BKN200,0.00,VWS V14.01,2013-03-25 09:14:00,
2013-03-25 05:20:00,33.2,31.0,29.67,NW,318,2.5,2.5,91,0.00,,BKN200,0.00,VWS V14.01,2013-03-25 09:20:00,
2013-03-25 05:26:00,33.3,31.1,29.67,NW,318,2.5,2.5,92,0.00,,BKN200,0.00,VWS V14.01,2013-03-25 09:26:00,
2013-03-25 05:32:00,33.6,31.4,29.66,NW,318,2.5,2.5,91,0.00,,BKN200,0.00,VWS V14.01,2013-03-25 09:32:00,
2013-03-25 05:38:00,33.8,31.8,29.66,NW,318,2.5,2.5,92,0.00,,BKN200,0.00,VWS V14.01,2013-03-25 09:38:00,
2013-03-25 05:44:00,33.9,32.0,29.66,North,0,2.5,2.5,92,0.00,,BKN200,0.00,VWS V14.01,2013-03-25 09:44:00,
2013-03-25 05:50:00,34.0,32.1,29.66,North,0,2.5,2.5,93,0.00,,BKN200,0.00,VWS V14.01,2013-03-25 09:50:00,
2013-03-25 05:58:00,34.0,32.2,29.66,North,0,2.5,2.5,93,0.00,,BKN200,0.00,VWS V14.01,2013-03-25 09:58:00,
2013-03-25 06:04:00,34.1,32.5,29.66,North,0,2.5,2.5,94,0.00,,BKN200,0.00,VWS V14.01,2013-03-25 10:04:00,
2013-03-25 06:10:00,34.2,32.7,29.66,North,0,2.5,2.5,94,0.00,,BKN200,0.00,VWS V14.01,2013-03-25 10:10:00,
2013-03-25 06:18:00,34.1,32.7,29.66,North,0,2.5,2.5,94,0.00,,BKN200,0.00,VWS V14.01,2013-03-25 10:18:00,
2013-03-25 06:24:00,34.2,32.9,29.66,North,0,2.5,2.5,95,0.00,,BKN200,0.00,VWS V14.01,2013-03-25 10:24:00,
2013-03-25 06:30:00,34.1,32.8,29.66,North,0,2.5,2.5,95,0.00,,BKN200,0.00,VWS V14.01,2013-03-25 10:30:00,
2013-03-25 06:36:00,34.1,32.8,29.66,North,0,2.5,2.5,95,0.00,,BKN200,0.00,VWS V14.01,2013-03-25 10:36:00,
2013-03-25 06:42:00,34.2,33.0,29.66,North,0,2.5,2.5,95,0.00,,BKN200,0.00,VWS V14.01,2013-03-25 10:42:00,
2013-03-25 06:48:00,34.2,33.0,29.66,North,0,2.5,2.5,95,0.00,,BKN200,0.00,VWS V14.01,2013-03-25 10:48:00,
2013-03-25 06:54:00,34.4,33.3,29.66,NW,309,2.5,2.5,96,0.00,,BKN200,0.00,VWS V14.01,2013-03-25 10:54:00,
2013-03-25 07:00:00,34.7,33.7,29.66,North,349,2.5,2.5,96,0.00,,BKN200,0.00,VWS V14.01,2013-03-25 11:00:00,
2013-03-25 07:06:00,34.8,33.8,29.66,North,349,2.5,2.5,96,0.00,,BKN200,0.00,VWS V14.01,2013-03-25 11:06:00,
2013-03-25 07:12:00,35.1,34.0,29.66,NE,49,2.5,6.0,96,0.00,,BKN200,0.00,VWS V14.01,2013-03-25 11:12:00,
2013-03-25 07:18:00,35.4,34.3,29.66,NE,49,2.5,2.5,96,0.00,,BKN200,0.00,VWS V14.01,2013-03-25 11:18:00,
2013-03-25 07:24:00,35.7,34.6,29.66,ENE,60,4.6,4.6,96,0.00,,BKN200,0.00,VWS V14.01,2013-03-25 11:24:00,
2013-03-25 07:30:00,36.0,34.8,29.66,NE,52,4.1,7.8,96,0.00,,BKN200,0.00,VWS V14.01,2013-03-25 11:30:00,
2013-03-25 07:38:00,36.4,35.2,29.66,NE,34,2.5,7.1,95,0.00,,BKN200,0.00,VWS V14.01,2013-03-25 11:38:00,
2013-03-25 07:44:00,36.6,35.3,29.66,NNE,20,2.5,4.9,95,0.00,,BKN200,0.00,VWS V14.01,2013-03-25 11:44:00,
2013-03-25 07:50:00,36.9,35.5,29.66,NNE,20,2.5,2.5,94,0.00,,BKN200,0.00,VWS V14.01,2013-03-25 11:50:00,
2013-03-25 07:58:00,37.1,35.6,29.66,NNE,32,4.4,7.3,94,0.00,,BKN200,0.00,VWS V14.01,2013-03-25 11:58:00,
2013-03-25 08:04:00,37.4,35.8,29.66,NNE,18,2.5,4.5,94,0.00,,BKN299,0.00,VWS V14.01,2013-03-25 12:04:00,
2013-03-25 08:10:00,37.8,36.1,29.66,NNE,20,2.5,3.9,94,0.00,,BKN299,0.00,VWS V14.01,2013-03-25 12:10:00,
2013-03-25 08:16:00,38.0,36.1,29.66,NNE,30,4.6,5.2,93,0.00,,BKN299,0.00,VWS V14.01,2013-03-25 12:16:00,
2013-03-25 08:22:00,38.4,36.4,29.66,North,3,2.5,5.5,92,0.00,,BKN299,0.00,VWS V14.01,2013-03-25 12:22:00,
2013-03-25 08:28:00,38.7,36.5,29.66,East,83,5.8,8.4,92,0.00,,BKN299,0.00,VWS V14.01,2013-03-25 12:28:00,
2013-03-25 08:34:00,39.0,36.6,29.66,North,352,2.5,8.0,91,0.00,,BKN299,0.00,VWS V14.01,2013-03-25 12:34:00,
2013-03-25 08:40:00,39.3,36.7,29.66,NE,41,6.0,7.3,90,0.00,,BKN299,0.00,VWS V14.01,2013-03-25 12:40:00,
2013-03-25 08:48:00,39.8,36.9,29.66,NE,34,5.3,8.6,89,0.00,,BKN299,0.00,VWS V14.01,2013-03-25 12:48:00,
2013-03-25 08:54:00,40.1,36.9,29.66,NNE,27,7.8,7.8,88,0.00,,BKN299,0.00,VWS V14.01,2013-03-25 12:54:00,
2013-03-25 09:00:00,40.4,36.8,29.65,NE,45,8.8,10.4,87,0.00,,BKN299,0.00,VWS V14.01,2013-03-25 13:00:00,
2013-03-25 09:08:00,40.9,36.9,29.65,NE,51,8.0,8.0,86,0.00,,OVC200,0.00,VWS V14.01,2013-03-25 13:08:00,
2013-03-25 09:14:00,41.2,36.9,29.65,NNW,345,6.1,8.5,85,0.00,,OVC200,0.00,VWS V14.01,2013-03-25 13:14:00,
2013-03-25 09:20:00,41.4,36.6,29.65,ENE,66,6.7,10.2,83,0.00,,OVC200,0.00,VWS V14.01,2013-03-25 13:20:00,
2013-03-25 09:26:00,41.3,36.4,29.65,ENE,72,5.6,7.8,83,0.00,,OVC200,0.00,VWS V14.01,2013-03-25 13:26:00,
2013-03-25 09:32:00,41.5,36.5,29.65,NE,55,10.3,13.6,82,0.00,,OVC200,0.00,VWS V14.01,2013-03-25 13:32:00,
2013-03-25 09:38:00,42.0,36.8,29.64,NE,46,7.8,8.7,82,0.00,,OVC200,0.00,VWS V14.01,2013-03-25 13:38:00,
2013-03-25 09:44:00,42.2,36.8,29.64,NNE,24,7.5,9.5,81,0.00,,OVC200,0.00,VWS V14.01,2013-03-25 13:44:00,
2013-03-25 09:50:00,42.4,36.8,29.64,NNE,32,7.8,14.9,80,0.00,,OVC200,0.00,VWS V14.01,2013-03-25 13:50:00,
2013-03-25 09:56:00,42.4,36.5,29.64,NNE,22,8.5,11.0,80,0.00,,OVC200,0.00,VWS V14.01,2013-03-25 13:56:00,
2013-03-25 10:02:00,42.4,36.3,29.63,NNE,32,8.1,10.7,79,0.00,,OVC250,0.00,VWS V14.01,2013-03-25 14:02:00,
2013-03-25 10:08:00,42.6,36.7,29.63,ENE,62,10.0,12.2,79,0.00,,OVC250,0.00,VWS V14.01,2013-03-25 14:08:00,
2013-03-25 10:14:00,42.7,36.6,29.63,ENE,69,8.0,11.9,79,0.00,,OVC250,0.00,VWS V14.01,2013-03-25 14:14:00,
2013-03-25 10:20:00,42.8,36.4,29.63,NE,42,6.7,11.6,78,0.00,,OVC250,0.00,VWS V14.01,2013-03-25 14:20:00,
2013-03-25 10:26:00,42.9,36.4,29.63,NNE,30,7.4,10.5,78,0.00,,OVC250,0.00,VWS V14.01,2013-03-25 14:26:00,
2013-03-25 10:32:00,43.0,36.2,29.63,ESE,120,6.5,10.5,77,0.00,,OVC250,0.00,VWS V14.01,2013-03-25 14:32:00,
2013-03-25 10:38:00,43.7,36.8,29.62,East,87,6.5,9.2,77,0.00,,OVC250,0.00,VWS V14.01,2013-03-25 14:38:00,
2013-03-25 10:44:00,44.1,36.6,29.63,NNW,343,3.9,9.5,75,0.00,,OVC250,0.00,VWS V14.01,2013-03-25 14:44:00,
2013-03-25 10:50:00,44.0,36.0,29.63,NNE,20,8.3,11.3,73,0.00,,OVC250,0.00,VWS V14.01,2013-03-25 14:50:00,
2013-03-25 10:58:00,44.1,35.9,29.63,East,101,5.9,12.2,73,0.00,,OVC250,0.00,VWS V14.01,2013-03-25 14:58:00,
2013-03-25 11:04:00,44.5,36.0,29.62,NE,41,8.7,12.0,72,0.00,,OVC180,0.00,VWS V14.01,2013-03-25 15:04:00,
2013-03-25 11:10:00,45.0,36.0,29.62,NE,38,10.5,10.5,70,0.00,,OVC180,0.00,VWS V14.01,2013-03-25 15:10:00,
2013-03-25 11:16:00,45.1,35.5,29.62,East,86,7.4,10.3,69,0.00,,OVC180,0.00,VWS V14.01,2013-03-25 15:16:00,
2013-03-25 11:22:00,45.4,35.2,29.62,East,83,9.0,11.3,67,0.00,,OVC180,0.00,VWS V14.01,2013-03-25 15:22:00,
2013-03-25 11:28:00,45.8,34.9,29.62,ENE,65,8.6,12.3,66,0.00,,OVC180,0.00,VWS V14.01,2013-03-25 15:28:00,
2013-03-25 11:34:00,46.1,34.6,29.62,ENE,58,4.7,10.6,64,0.00,,OVC180,0.00,VWS V14.01,2013-03-25 15:34:00,
2013-03-25 11:40:00,46.3,33.6,29.62,ENE,75,7.4,15.5,61,0.00,,OVC180,0.00,VWS V14.01,2013-03-25 15:40:00,
2013-03-25 11:46:00,46.5,32.7,29.62,East,90,7.7,16.4,58,0.00,,OVC180,0.00,VWS V14.01,2013-03-25 15:46:00,
2013-03-25 11:52:00,46.6,31.7,29.62,ENE,59,7.2,9.7,56,0.00,,OVC180,0.00,VWS V14.01,2013-03-25 15:52:00,
2013-03-25 11:58:00,47.3,32.0,29.62,NE,35,6.8,15.9,55,0.00,,OVC180,0.00,VWS V14.01,2013-03-25 15:58:00,
2013-03-25 12:04:00,47.2,30.9,29.62,NE,39,9.0,14.1,53,0.00,,OVC250,0.00,VWS V14.01,2013-03-25 16:04:00,
2013-03-25 12:10:00,46.8,29.9,29.61,East,91,7.8,15.5,52,0.00,,OVC250,0.00,VWS V14.01,2013-03-25 16:10:00,
2013-03-25 12:18:00,47.0,29.8,29.61,East,84,11.3,12.3,51,0.00,,OVC250,0.00,VWS V14.01,2013-03-25 16:18:00,
2013-03-25 12:24:00,47.0,29.0,29.61,NNW,343,7.6,11.5,49,0.00,,OVC250,0.00,VWS V14.01,2013-03-25 16:24:00,
2013-03-25 12:30:00,47.0,29.2,29.60,North,7,9.9,12.2,50,0.00,,OVC250,0.00,VWS V14.01,2013-03-25 16:30:00,
2013-03-25 12:36:00,46.9,28.6,29.60,East,82,9.6,16.0,49,0.00,,OVC250,0.00,VWS V14.01,2013-03-25 16:36:00,
2013-03-25 12:42:00,46.9,28.8,29.60,East,96,8.7,14.2,49,0.00,,OVC250,0.00,VWS V14.01,2013-03-25 16:42:00,
2013-03-25 12:48:00,47.2,29.0,29.60,NE,39,12.1,12.8,49,0.00,,OVC250,0.00,VWS V14.01,2013-03-25 16:48:00,
2013-03-25 12:54:00,47.2,28.5,29.59,NNE,31,10.0,11.4,48,0.00,,OVC250,0.00,VWS V14.01,2013-03-25 16:54:00,
2013-03-25 13:00:00,47.2,28.7,29.58,ESE,114,8.5,10.0,48,0.00,,OVC250,0.00,VWS V14.01,2013-03-25 17:00:00,
2013-03-25 13:08:00,47.5,29.0,29.58,ESE,103,8.6,10.8,48,0.00,,SCT250,0.00,VWS V14.01,2013-03-25 17:08:00,
2013-03-25 13:14:00,47.8,28.7,29.58,NNE,30,11.0,12.3,47,0.00,,SCT250,0.00,VWS V14.01,2013-03-25 17:14:00,
2013-03-25 13:20:00,46.9,28.0,29.58,ENE,65,14.8,16.5,47,0.00,,SCT250,0.00,VWS V14.01,2013-03-25 17:20:00,
2013-03-25 13:28:00,47.2,28.8,29.58,ENE,66,7.3,14.2,49,0.00,,SCT250,0.00,VWS V14.01,2013-03-25 17:28:00,
2013-03-25 13:34:00,47.0,29.0,29.58,ENE,69,5.9,17.5,49,0.00,,SCT250,0.00,VWS V14.01,2013-03-25 17:34:00,
2013-03-25 13:40:00,46.8,28.4,29.58,ESE,108,9.3,16.7,48,0.00,,SCT250,0.00,VWS V14.01,2013-03-25 17:40:00,
2013-03-25 13:48:00,46.1,28.2,29.58,NNE,27,11.0,19.9,49,0.00,,SCT250,0.00,VWS V14.01,2013-03-25 17:48:00,
2013-03-25 13:54:00,46.2,28.4,29.57,ESE,107,7.0,17.8,50,0.00,,SCT250,0.00,VWS V14.01,2013-03-25 17:54:00,
2013-03-25 14:00:00,46.5,28.7,29.58,NE,49,8.1,10.8,50,0.00,,SCT250,0.00,VWS V14.01,2013-03-25 18:00:00,
2013-03-25 14:08:00,46.4,28.0,29.57,NE,55,9.8,12.9,48,0.00,,BKN250,0.00,VWS V14.01,2013-03-25 18:08:00,
2013-03-25 14:14:00,46.1,28.4,29.57,NE,38,8.1,17.9,50,0.00,,BKN250,0.00,VWS V14.01,2013-03-25 18:14:00,
2013-03-25 14:20:00,45.5,28.2,29.57,NNE,21,11.4,13.9,51,0.00,,BKN250,0.00,VWS V14.01,2013-03-25 18:20:00,
2013-03-25 14:26:00,45.3,28.2,29.57,East,82,5.7,14.8,51,0.00,,BKN250,0.00,VWS V14.01,2013-03-25 18:26:00,
2013-03-25 14:32:00,45.5,28.1,29.56,ENE,60,7.9,11.1,50,0.00,,BKN250,0.00,VWS V14.01,2013-03-25 18:32:00,
2013-03-25 14:38:00,45.8,28.0,29.55,ESE,104,6.3,16.7,50,0.00,,BKN250,0.00,VWS V14.01,2013-03-25 18:38:00,
2013-03-25 14:44:00,45.7,27.9,29.55,East,96,14.9,16.1,50,0.00,,BKN250,0.00,VWS V14.01,2013-03-25 18:44:00,
2013-03-25 14:50:00,45.3,27.4,29.54,NNE,17,8.3,10.5,49,0.00,,BKN250,0.00,VWS V14.01,2013-03-25 18:50:00,
2013-03-25 14:56:00,44.8,27.7,29.54,North,354,8.7,15.6,51,0.00,,BKN250,0.00,VWS V14.01,2013-03-25 18:56:00,
2013-03-25 15:02:00,44.3,27.1,29.53,ENE,62,7.7,11.0,51,0.00,,BKN270,0.00,VWS V14.01,2013-03-25 19:02:00,
2013-03-25 15:08:00,44.2,28.0,29.52,ENE,72,7.0,15.5,53,0.00,,BKN270,0.00,VWS V14.01,2013-03-25 19:08:00,
2013-03-25 15:14:00,44.2,28.2,29.51,ESE,105,6.6,11.6,53,0.00,,BKN270,0.00,VWS V14.01,2013-03-25 19:14:00,
2013-03-25 15:20:00,44.0,28.3,29.50,NNE,32,8.8,11.9,54,0.00,,BKN270,0.00,VWS V14.01,2013-03-25 19:20:00,
2013-03-25 15:26:00,43.8,27.9,29.50,NNE,30,8.2,13.2,53,0.00,,BKN270,0.00,VWS V14.01,2013-03-25 19:26:00,
2013-03-25 15:32:00,43.7,28.0,29.49,North,359,8.2,11.2,54,0.00,,BKN270,0.00,VWS V14.01,2013-03-25 19:32:00,
2013-03-25 15:38:00,43.8,28.7,29.48,NE,35,6.5,11.8,55,0.00,,BKN270,0.00,VWS V14.01,2013-03-25 19:38:00,
2013-03-25 15:44:00,43.5,28.4,29.49,NE,37,8.6,14.3,55,0.00,,BKN270,0.00,VWS V14.01,2013-03-25 19:44:00,
2013-03-25 15:50:00,43.3,28.7,29.49,NE,37,8.5,15.9,56,0.00,,BKN270,0.00,VWS V14.01,2013-03-25 19:50:00,
2013-03-25 15:56:00,42.9,28.6,29.49,NNE,22,10.8,11.6,57,0.00,,BKN270,0.00,VWS V14.01,2013-03-25 19:56:00,
2013-03-25 16:02:00,42.8,28.6,29.49,East,94,14.5,15.4,57,0.00,,BKN270,0.00,VWS V14.01,2013-03-25 20:02:00,
2013-03-25 16:08:00,42.6,28.4,29.49,NNE,28,7.0,13.8,57,0.00,,BKN270,0.00,VWS V14.01,2013-03-25 20:08:00,
2013-03-25 16:14:00,42.5,28.7,29.49,NE,37,6.1,10.7,58,0.00,,BKN270,0.00,VWS V14.01,2013-03-25 20:14:00,
2013-03-25 16:20:00,42.4,28.6,29.49,North,6,10.5,13.6,58,0.00,,BKN270,0.00,VWS V14.01,2013-03-25 20:20:00,
2013-03-25 16:26:00,42.1,28.5,29.49,NNE,18,9.2,14.1,58,0.00,,BKN270,0.00,VWS V14.01,2013-03-25 20:26:00,
2013-03-25 16:32:00,41.7,28.1,29.49,NE,35,7.7,10.2,58,0.00,,BKN270,0.00,VWS V14.01,2013-03-25 20:32:00,
2013-03-25 16:38:00,41.5,28.3,29.48,ENE,75,5.7,12.6,59,0.00,,BKN270,0.00,VWS V14.01,2013-03-25 20:38:00,
2013-03-25 16:44:00,41.3,28.4,29.48,NNE,28,10.8,12.8,60,0.00,,BKN270,0.00,VWS V14.01,2013-03-25 20:44:00,
2013-03-25 16:50:00,41.0,28.6,29.48,East,84,8.1,12.1,61,0.00,,BKN270,0.00,VWS V14.01,2013-03-25 20:50:00,
2013-03-25 16:56:00,40.9,29.0,29.48,NNE,13,8.9,11.4,62,0.00,,BKN270,0.00,VWS V14.01,2013-03-25 20:56:00,
2013-03-25 17:02:00,40.7,29.0,29.48,East,84,8.1,12.5,63,0.00,,BKN270,0.00,VWS V14.01,2013-03-25 21:02:00,
2013-03-25 17:08:00,40.4,28.9,29.48,ENE,58,9.0,13.1,63,0.00,,BKN270,0.00,VWS V14.01,2013-03-25 21:08:00,
2013-03-25 17:14:00,40.1,28.8,29.48,NNE,17,7.2,12.1,64,0.00,,BKN270,0.00,VWS V14.01,2013-03-25 21:14:00,
2013-03-25 17:20:00,40.0,29.2,29.48,NW,319,3.9,14.2,65,0.00,,BKN270,0.00,VWS V14.01,2013-03-25 21:20:00,
2013-03-25 17:28:00,39.8,29.6,29.48,North,6,5.4,11.4,67,0.00,,BKN270,0.00,VWS V14.01,2013-03-25 21:28:00,
2013-03-25 17:34:00,39.8,29.9,29.48,NE,48,8.3,12.5,68,0.00,,BKN270,0.00,VWS V14.01,2013-03-25 21:34:00,
2013-03-25 17:40:00,39.5,30.3,29.48,North,356,11.2,14.3,69,0.00,,BKN270,0.00,VWS V14.01,2013-03-25 21:40:00,
2013-03-25 17:48:00,39.0,30.4,29.48,North,6,7.2,8.7,71,0.00,,BKN270,0.00,VWS V14.01,2013-03-25 21:48:00,
2013-03-25 17:54:00,38.8,30.5,29.48,North,350,6.2,12.4,72,0.00,,BKN270,0.00,VWS V14.01,2013-03-25 21:54:00,
2013-03-25 18:00:00,38.9,30.6,29.48,NNE,32,6.1,16.5,72,0.00,,BKN270,0.00,VWS V14.01,2013-03-25 22:00:00,
2013-03-25 18:06:00,38.9,30.4,29.48,NE,39,6.7,10.6,71,0.00,,OVC160,0.00,VWS V14.01,2013-03-25 22:06:00,
2013-03-25 18:12:00,39.0,30.8,29.49,NNE,27,7.5,10.0,72,0.00,,OVC160,0.00,VWS V14.01,2013-03-25 22:12:00,
2013-03-25 18:18:00,38.8,30.8,29.48,ENE,63,6.8,14.4,73,0.00,,OVC160,0.00,VWS V14.01,2013-03-25 22:18:00,
2013-03-25 18:24:00,38.7,30.6,29.48,NE,51,9.4,15.3,72,0.00,,OVC160,0.00,VWS V14.01,2013-03-25 22:24:00,
2013-03-25 18:30:00,38.6,30.6,29.48,North,10,10.8,12.1,73,0.00,,OVC160,0.00,VWS V14.01,2013-03-25 22:30:00,
2013-03-25 18:36:00,38.6,30.4,29.48,East,80,9.3,11.1,72,0.00,,OVC160,0.00,VWS V14.01,2013-03-25 22:36:00,
2013-03-25 18:42:00,38.4,30.5,29.48,NNE,14,7.8,8.8,73,0.00,,OVC160,0.00,VWS V14.01,2013-03-25 22:42:00,
2013-03-25 18:48:00,38.4,30.8,29.48,North,11,10.3,16.5,74,0.00,,OVC160,0.00,VWS V14.01,2013-03-25 22:48:00,
2013-03-25 18:54:00,38.0,31.1,29.49,NNE,22,6.2,16.3,76,0.00,,OVC160,0.00,VWS V14.01,2013-03-25 22:54:00,
2013-03-25 19:00:00,37.4,31.5,29.48,NE,37,7.4,11.3,79,0.00,,OVC160,0.00,VWS V14.01,2013-03-25 23:00:00,
2013-03-25 19:08:00,37.3,32.1,29.49,NNE,25,11.1,15.9,81,0.00,,OVC160,0.00,VWS V14.01,2013-03-25 23:08:00,
2013-03-25 19:14:00,36.7,32.1,29.49,ENE,58,4.6,11.0,83,0.00,,OVC160,0.00,VWS V14.01,2013-03-25 23:14:00,
2013-03-25 19:20:00,36.1,32.5,29.49,NE,51,7.5,12.1,86,0.00,,OVC160,0.00,VWS V14.01,2013-03-25 23:20:00,
2013-03-25 19:26:00,36.2,33.3,29.49,North,7,4.2,11.5,89,0.00,,OVC160,0.00,VWS V14.01,2013-03-25 23:26:00,
2013-03-25 19:32:00,36.6,34.1,29.49,NNE,32,8.7,12.8,91,0.00,,OVC160,0.00,VWS V14.01,2013-03-25 23:32:00,
2013-03-25 19:38:00,36.7,34.4,29.49,NNE,21,8.7,16.3,91,0.00,,OVC160,0.00,VWS V14.01,2013-03-25 23:38:00,
2013-03-25 19:44:00,37.0,34.3,29.49,NNE,22,11.0,11.8,90,0.00,,OVC160,0.00,VWS V14.01,2013-03-25 23:44:00,
2013-03-25 21:04:00,37.5,32.6,29.49,NE,37,13.4,13.4,82,0.00,,OVC160,0.00,VWS V14.01,2013-03-26 01:04:00,
2013-03-25 21:12:00,37.5,32.0,29.49,North,4,9.0,12.6,80,0.00,,OVC160,0.00,VWS V14.01,2013-03-26 01:12:00,
2013-03-25 21:18:00,37.5,31.6,29.49,East,79,8.5,14.7,79,0.00,,OVC150,0.00,VWS V14.01,2013-03-26 01:18:00,
2013-03-25 21:24:00,37.6,31.8,29.49,North,4,12.9,14.6,79,0.00,,OVC150,0.00,VWS V14.01,2013-03-26 01:24:00,
2013-03-25 21:30:00,37.7,31.9,29.49,NNE,25,9.5,11.6,79,0.00,,OVC150,0.00,VWS V14.01,2013-03-26 01:30:00,
2013-03-25 21:38:00,37.8,32.2,29.49,NE,45,8.3,9.3,80,0.00,,OVC150,0.00,VWS V14.01,2013-03-26 01:38:00,
2013-03-25 21:44:00,37.8,32.3,29.49,ENE,66,8.2,13.4,80,0.00,,OVC150,0.00,VWS V14.01,2013-03-26 01:44:00,
2013-03-25 21:50:00,37.8,32.4,29.49,NE,56,10.3,13.6,81,0.00,,OVC150,0.00,VWS V14.01,2013-03-26 01:50:00,
2013-03-25 21:56:00,37.9,32.1,29.49,NNE,31,9.7,12.1,79,0.00,,OVC150,0.00,VWS V14.01,2013-03-26 01:56:00,
2013-03-25 22:02:00,37.8,31.6,29.48,NNE,25,7.8,12.8,78,0.00,,OVC160,0.00,VWS V14.01,2013-03-26 02:02:00,
2013-03-25 22:08:00,37.9,31.8,29.48,NNE,18,12.1,15.3,78,0.00,,OVC160,0.00,VWS V14.01,2013-03-26 02:08:00,
2013-03-25 22:14:00,37.7,31.5,29.48,NE,44,10.3,14.0,78,0.00,,OVC160,0.00,VWS V14.01,2013-03-26 02:14:00,
2013-03-25 22:20:00,37.9,31.7,29.48,North,356,5.6,12.3,78,0.00,,OVC160,0.00,VWS V14.01,2013-03-26 02:20:00,
2013-03-25 22:26:00,37.8,31.5,29.48,NNE,30,9.8,11.8,78,0.00,,OVC160,0.00,VWS V14.01,2013-03-26 02:26:00,
2013-03-25 22:32:00,37.8,31.5,29.48,NE,52,8.5,13.7,78,0.00,,OVC160,0.00,VWS V14.01,2013-03-26 02:32:00,
2013-03-25 22:38:00,38.0,31.7,29.48,NNW,336,6.6,11.4,78,0.00,,OVC160,0.00,VWS V14.01,2013-03-26 02:38:00,
2013-03-25 22:44:00,37.9,31.7,29.48,NNE,14,7.8,12.2,78,0.00,,OVC160,0.00,VWS V14.01,2013-03-26 02:44:00,
2013-03-25 22:50:00,37.9,31.8,29.48,NNE,15,7.2,10.0,78,0.00,,OVC160,0.00,VWS V14.01,2013-03-26 02:50:00,
2013-03-25 22:58:00,37.9,31.8,29.48,ENE,59,8.5,11.9,78,0.00,,OVC160,0.00,VWS V14.01,2013-03-26 02:58:00,
2013-03-25 23:04:00,37.8,32.0,29.48,NNE,20,6.0,11.4,79,0.00,,OVC060,0.00,VWS V14.01,2013-03-26 03:04:00,
2013-03-25 23:10:00,37.8,32.3,29.48,NNE,22,9.1,10.8,80,0.00,,OVC060,0.00,VWS V14.01,2013-03-26 03:10:00,
2013-03-25 23:16:00,37.9,32.5,29.47,NNE,31,9.0,12.3,81,0.00,,OVC060,0.00,VWS V14.01,2013-03-26 03:16:00,
2013-03-25 23:22:00,38.0,32.6,29.47,NE,34,7.2,10.8,81,0.00,,OVC060,0.00,VWS V14.01,2013-03-26 03:22:00,
2013-03-25 23:28:00,38.0,32.7,29.47,NNW,343,7.6,8.2,81,0.00,,OVC060,0.00,VWS V14.01,2013-03-26 03:28:00,
2013-03-25 23:34:00,38.0,32.7,29.47,NNW,347,8.7,12.1,81,0.00,,OVC060,0.00,VWS V14.01,2013-03-26 03:34:00,
2013-03-25 23:40:00,37.9,32.1,29.47,North,353,5.2,13.2,79,0.00,,OVC060,0.00,VWS V14.01,2013-03-26 03:40:00,
2013-03-25 23:46:00,37.9,32.0,29.47,NNE,21,6.8,7.7,79,0.00,,OVC060,0.00,VWS V14.01,2013-03-26 03:46:00,
2013-03-25 23:52:00,38.0,32.4,29.47,NNE,27,8.5,9.7,80,0.00,,OVC060,0.00,VWS V14.01,2013-03-26 03:52:00,
2013-03-25 23:58:00,38.1,32.7,29.47,NNW,343,9.7,10.1,81,0.00,,OVC060,0.00,VWS V14.01,2013-03-26 03:58:00,